Vancouver, British Columbia

5:00 PM PDT on June 26, 2017 (GMT -0700)
Vancouver International Airport

Weather History for CYVR - October, 2012

Change the Weather History Date:

Wednesday, October 24, 2012

  Actual Average Record
Temperature  
Mean Temperature 44 °F -  
Max Temperature 46 °F 50 °F 59 °F (2005)
Min Temperature 42 °F 38 °F 37 °F (1997)
Degree Days  
Heating Degree Days 21    
Moisture  
Dew Point 40 °F    
Average Humidity 82    
Maximum Humidity 87    
Minimum Humidity 74    
Precipitation  
Precipitation 0.02 in 0.21 in - ()
Sea Level Pressure  
Sea Level Pressure 30.00 in    
Wind  
Wind Speed 7 mph ()    
Max Wind Speed 13 mph    
Max Gust Speed -    
Visibility 14.7 miles    
Events Rain    
Averages and records for this station are not official NWS values.
T = Trace of Precipitation, MM = Missing Value Source: Averaged Metar Reports

Daily Weather History Graph

Daily Weather History Graph

Search for Another Location

Airport or City:

Trip Planner

Search our weather history database for the weather conditions in past years. The results will help you decide how hot, cold, wet, or windy it might be!

Date:

Astronomy

Oct. 24, 2012 Rise Set
Actual Time 7:48 AM PDT 6:04 PM PDT
Civil Twilight 7:15 AM PDT 6:36 PM PDT
Nautical Twilight 6:38 AM PDT 7:13 PM PDT
Astronomical Twilight 6:01 AM PDT 7:50 PM PDT
Moon 3:44 PM PDT (10/24) 2:25 AM PDT (10/24)
Length of Visible Light 11h 21m
Length of Day
10h 15m
Waxing Gibbous, 77% of the Moon is Illuminated
Oct 24
Waxing Gibbous
Oct 29
Full
Nov 6
Last Quarter
Nov 13
New
Nov 20
First Quarter

Hourly Weather History & Observations

Time (PDT) Temp. Windchill Dew Point Humidity Pressure Visibility Wind Dir Wind Speed Gust Speed Precip Events Conditions
12:00 AM 44.6 °F 39.2 °F 39.2 °F 81% 29.89 in 15.0 mi ESE 10.4 mph - N/A   Mostly Cloudy
1:00 AM 42.8 °F 37.0 °F 39.2 °F 87% 29.89 in 15.0 mi ESE 10.4 mph - N/A   Mostly Cloudy
2:00 AM 42.8 °F 36.2 °F 39.2 °F 87% 29.89 in 15.0 mi East 12.7 mph - N/A   Overcast
3:00 AM 44.6 °F 39.7 °F 39.2 °F 81% 29.89 in 15.0 mi East 9.2 mph - N/A   Overcast
4:00 AM 42.8 °F 37.5 °F 39.2 °F 87% 29.88 in 15.0 mi East 9.2 mph - N/A   Overcast
4:40 AM 42.8 °F 38.0 °F - N/A% - 15.0 mi ESE 8.1 mph - N/A Rain Light Rain Showers
5:00 AM 44 °F - 39 °F 75% 29.89 in 15 mi ESE 10.4 mph - - Rain Light Rain Showers
5:00 AM 42.8 °F 37.5 °F 39.2 °F 87% 29.89 in 15.0 mi ESE 9.2 mph - N/A Rain Light Rain Showers
6:00 AM 44.6 °F 38.8 °F 39.2 °F 81% 29.89 in 15.0 mi ENE 11.5 mph - N/A Rain Light Rain Showers
7:00 AM 44.6 °F 41.4 °F 37.4 °F 76% 29.92 in 15.0 mi SSW 5.8 mph - N/A Rain Light Rain Showers
8:00 AM 42.8 °F 38.0 °F 37.4 °F 81% 29.94 in 12.0 mi ESE 8.1 mph - N/A Rain Light Rain Showers
9:00 AM 42.8 °F 38.6 °F 39.2 °F 87% 29.96 in 15.0 mi East 6.9 mph - N/A Rain Light Rain Showers
10:00 AM 44.6 °F 40.7 °F 37.4 °F 76% 29.97 in 15.0 mi ESE 6.9 mph - N/A Rain Light Rain Showers
11:00 AM 44 °F - 38 °F 74% 29.99 in 15 mi ESE 5.8 mph - - Rain Light Rain Showers
11:00 AM 44.6 °F 42.2 °F 39.2 °F 81% 29.99 in 15.0 mi ESE 4.6 mph - N/A Rain Light Rain Showers
12:00 PM 44.6 °F 39.2 °F 37.4 °F 76% 30.00 in 12.0 mi SE 10.4 mph - N/A Rain Light Rain Showers
1:00 PM 44.6 °F 39.7 °F 39.2 °F 81% 30.01 in 15.0 mi ESE 9.2 mph - N/A Rain Light Rain Showers
2:00 PM 44.6 °F 40.2 °F 41.0 °F 87% 30.02 in 10.0 mi East 8.1 mph - N/A Rain Light Rain Showers
3:00 PM 46.4 °F 43.5 °F 41.0 °F 81% 30.03 in 15.0 mi NE 5.8 mph - N/A Rain Light Rain Showers
3:11 PM 46.4 °F 43.5 °F - N/A% - 15.0 mi NNE 5.8 mph - N/A   Overcast
3:19 PM 46.4 °F 42.9 °F - N/A% - 15.0 mi North 6.9 mph - N/A Rain Light Rain Showers
4:00 PM 46.4 °F 42.9 °F 41.0 °F 81% 30.05 in 15.0 mi NNE 6.9 mph - N/A Rain Light Rain Showers
5:00 PM 46 °F - 42 °F 79% 30.06 in 15 mi East 5.8 mph - - Rain Light Rain Showers
5:00 PM 46.4 °F 42.9 °F 41.0 °F 81% 30.06 in 15.0 mi ENE 6.9 mph - N/A Rain Light Rain Showers
6:00 PM 46.4 °F 41.5 °F 41.0 °F 81% 30.08 in 15.0 mi ENE 10.4 mph - N/A Rain Light Rain Showers
6:42 PM 44.6 °F 43.1 °F - N/A% - 15.0 mi East 3.5 mph - N/A   Overcast
7:00 PM 44.6 °F - 41.0 °F 87% 30.10 in 15.0 mi East 2.3 mph - N/A   Overcast
8:00 PM 44.6 °F - 41.0 °F 87% 30.12 in 15.0 mi East 2.3 mph - N/A   Overcast
8:06 PM 44.6 °F 42.2 °F - N/A% - 15.0 mi East 4.6 mph - N/A Rain Light Rain Showers
9:00 PM 46.4 °F - 41.0 °F 81% 30.15 in 15.0 mi Calm Calm - N/A Rain Light Rain Showers
10:00 PM 44.6 °F - 41.0 °F 87% 30.16 in 15.0 mi Calm Calm - N/A   Overcast
11:00 PM 45 °F - 41 °F 82% 30.18 in 15 mi SE 2.3 mph - - Rain Light Rain Showers
11:00 PM 44.6 °F - 41.0 °F 87% 30.18 in 15.0 mi SE 2.3 mph - N/A Rain Light Rain Showers
11:18 PM 44.6 °F - - N/A% - 15.0 mi SE 2.3 mph - N/A   Overcast